Time,TemperatureF,DewpointF,PressureIn,WindDirection,WindDirectionDegrees,WindSpeedMPH,WindSpeedGustMPH,Humidity,HourlyPrecipIn,Conditions,Clouds,dailyrainin,SoftwareType,DateUTC
2013-10-14 00:12:00,44.0,41.0,30.22,NE,43,6.0,13.0,89,0.00,,,0.06,,2013-10-14 05:12:00,
2013-10-14 00:23:00,44.0,41.0,30.22,ENE,73,5.0,13.0,88,0.00,,,0.06,,2013-10-14 05:23:00,
2013-10-14 00:43:00,44.0,41.0,30.22,ENE,77,7.0,15.0,88,0.00,,,0.06,,2013-10-14 05:43:00,
2013-10-14 00:52:00,44.0,41.0,30.21,ENE,74,6.0,14.0,88,0.00,,,0.06,,2013-10-14 05:52:00,
2013-10-14 01:12:00,44.0,40.0,30.21,East,92,5.0,17.0,87,0.00,,,0.06,,2013-10-14 06:12:00,
2013-10-14 01:22:00,45.0,41.0,30.19,ENE,66,7.0,15.0,85,0.00,,,0.05,,2013-10-14 06:22:00,
2013-10-14 01:42:00,45.0,40.0,30.18,NE,35,8.0,17.0,83,0.01,,,0.06,,2013-10-14 06:42:00,
2013-10-14 01:52:00,45.0,40.0,30.17,NE,46,8.0,18.0,83,0.01,,,0.06,,2013-10-14 06:52:00,
2013-10-14 02:11:00,45.0,40.0,30.17,ESE,104,6.0,15.0,84,0.01,,,0.06,,2013-10-14 07:11:00,
2013-10-14 02:22:00,45.0,40.0,30.17,NE,42,8.0,16.0,83,0.01,,,0.06,,2013-10-14 07:22:00,
2013-10-14 02:42:00,45.0,40.0,30.17,NE,54,6.0,17.0,84,0.00,,,0.06,,2013-10-14 07:42:00,
2013-10-14 02:52:00,45.0,41.0,30.16,NE,49,6.0,16.0,85,0.00,,,0.06,,2013-10-14 07:52:00,
2013-10-14 03:12:00,45.0,40.0,30.16,ESE,113,6.0,16.0,84,0.00,,,0.06,,2013-10-14 08:12:00,
2013-10-14 03:22:00,45.0,40.0,30.15,ENE,75,9.0,18.0,84,0.00,,,0.06,,2013-10-14 08:22:00,
2013-10-14 03:42:00,45.0,40.0,30.14,ENE,65,9.0,18.0,83,0.00,,,0.06,,2013-10-14 08:42:00,
2013-10-14 03:52:00,45.0,40.0,30.13,NNE,22,6.0,17.0,84,0.00,,,0.06,,2013-10-14 08:52:00,
2013-10-14 04:11:00,45.0,41.0,30.13,SSE,161,8.0,15.0,85,0.00,,,0.06,,2013-10-14 09:11:00,
2013-10-14 04:22:00,45.0,41.0,30.12,NE,51,7.0,17.0,85,0.00,,,0.06,,2013-10-14 09:22:00,
2013-10-14 04:43:00,45.0,41.0,30.11,NNW,341,9.0,23.0,86,0.00,,,0.06,,2013-10-14 09:43:00,
2013-10-14 04:53:00,45.0,41.0,30.11,ESE,120,5.0,17.0,86,0.00,,,0.06,,2013-10-14 09:53:00,
2013-10-14 05:12:00,45.0,41.0,30.11,NE,42,6.0,15.0,86,0.00,,,0.06,,2013-10-14 10:12:00,
2013-10-14 05:23:00,45.0,41.0,30.11,East,87,5.0,12.0,86,0.00,,,0.06,,2013-10-14 10:23:00,
2013-10-14 05:42:00,44.0,40.0,30.11,NE,55,6.0,15.0,87,0.00,,,0.06,,2013-10-14 10:42:00,
2013-10-14 05:53:00,44.0,40.0,30.11,NE,35,4.0,17.0,87,0.00,,,0.06,,2013-10-14 10:53:00,
2013-10-14 06:11:00,44.0,41.0,30.12,ENE,58,4.0,11.0,88,0.00,,,0.06,,2013-10-14 11:11:00,
2013-10-14 06:22:00,44.0,41.0,30.11,East,94,4.0,14.0,89,0.00,,,0.06,,2013-10-14 11:22:00,
2013-10-14 06:42:00,44.0,41.0,30.11,NE,46,5.0,12.0,90,0.00,,,0.06,,2013-10-14 11:42:00,
2013-10-14 06:52:00,44.0,42.0,30.11,ENE,69,5.0,13.0,91,0.01,,,0.07,,2013-10-14 11:52:00,
2013-10-14 07:12:00,43.0,41.0,30.10,NE,49,7.0,16.0,91,0.01,,,0.07,,2013-10-14 12:12:00,
2013-10-14 07:22:00,43.0,41.0,30.10,East,79,5.0,15.0,92,0.02,,,0.08,,2013-10-14 12:22:00,
2013-10-14 07:42:00,43.0,41.0,30.09,NE,48,7.0,17.0,92,0.02,,,0.08,,2013-10-14 12:42:00,
2013-10-14 07:52:00,43.0,41.0,30.08,NE,52,6.0,14.0,92,0.01,,,0.08,,2013-10-14 12:52:00,
2013-10-14 08:11:00,43.0,41.0,30.09,NE,40,6.0,14.0,92,0.01,,,0.08,,2013-10-14 13:11:00,
2013-10-14 08:21:00,43.0,41.0,30.08,ENE,74,8.0,16.0,92,0.01,,,0.09,,2013-10-14 13:21:00,
2013-10-14 08:42:00,43.0,41.0,30.08,NE,46,5.0,14.0,93,0.01,,,0.09,,2013-10-14 13:42:00,
2013-10-14 08:52:00,43.0,41.0,30.08,East,89,4.0,12.0,94,0.01,,,0.09,,2013-10-14 13:52:00,
2013-10-14 09:11:00,43.0,41.0,30.08,NE,53,6.0,12.0,94,0.02,,,0.10,,2013-10-14 14:11:00,
2013-10-14 09:22:00,43.0,41.0,30.07,NNE,17,5.0,15.0,94,0.01,,,0.10,,2013-10-14 14:22:00,
2013-10-14 09:42:00,43.0,42.0,30.07,East,97,5.0,15.0,95,0.01,,,0.10,,2013-10-14 14:42:00,
2013-10-14 09:52:00,43.0,42.0,30.07,ENE,76,5.0,11.0,95,0.02,,,0.11,,2013-10-14 14:52:00,
2013-10-14 10:11:00,43.0,42.0,30.07,SE,128,6.0,18.0,95,0.01,,,0.11,,2013-10-14 15:11:00,
2013-10-14 10:21:00,44.0,43.0,30.08,East,92,6.0,12.0,96,0.02,,,0.12,,2013-10-14 15:21:00,
2013-10-14 10:44:00,44.0,43.0,30.08,ENE,77,5.0,15.0,96,0.02,,,0.12,,2013-10-14 15:44:00,
2013-10-14 10:54:00,44.0,43.0,30.08,ENE,60,4.0,14.0,96,0.01,,,0.12,,2013-10-14 15:54:00,
2013-10-14 11:13:00,44.0,43.0,30.08,ENE,63,6.0,15.0,96,0.02,,,0.13,,2013-10-14 16:13:00,
2013-10-14 11:23:00,44.0,43.0,30.09,East,96,4.0,13.0,96,0.02,,,0.13,,2013-10-14 16:23:00,
2013-10-14 11:42:00,44.0,43.0,30.08,ENE,77,4.0,15.0,96,0.02,,,0.13,,2013-10-14 16:42:00,
2013-10-14 11:53:00,44.0,43.0,30.07,ESE,123,3.0,13.0,96,0.03,,,0.14,,2013-10-14 16:53:00,
2013-10-14 12:12:00,44.0,43.0,30.07,ENE,71,5.0,12.0,97,0.03,,,0.15,,2013-10-14 17:12:00,
2013-10-14 12:22:00,44.0,43.0,30.06,NE,38,9.0,18.0,97,0.02,,,0.15,,2013-10-14 17:22:00,
2013-10-14 12:42:00,44.0,43.0,30.05,NNE,23,7.0,19.0,97,0.03,,,0.16,,2013-10-14 17:42:00,
2013-10-14 12:52:00,44.0,43.0,30.04,NE,45,9.0,16.0,97,0.03,,,0.17,,2013-10-14 17:52:00,
2013-10-14 13:12:00,44.0,43.0,30.04,ENE,65,8.0,18.0,96,0.03,,,0.18,,2013-10-14 18:12:00,
2013-10-14 13:22:00,44.0,43.0,30.04,NE,41,7.0,16.0,96,0.03,,,0.18,,2013-10-14 18:22:00,
2013-10-14 13:42:00,45.0,44.0,30.03,NE,42,7.0,17.0,96,0.03,,,0.19,,2013-10-14 18:42:00,
2013-10-14 13:52:00,45.0,44.0,30.03,NE,48,9.0,18.0,96,0.03,,,0.20,,2013-10-14 18:52:00,
2013-10-14 14:11:00,45.0,44.0,30.03,NE,52,8.0,19.0,96,0.03,,,0.21,,2013-10-14 19:11:00,
2013-10-14 14:22:00,45.0,44.0,30.03,NNE,32,7.0,15.0,96,0.02,,,0.21,,2013-10-14 19:22:00,
2013-10-14 14:42:00,45.0,44.0,30.03,NE,41,7.0,17.0,96,0.03,,,0.22,,2013-10-14 19:42:00,
2013-10-14 14:52:00,45.0,44.0,30.03,NE,50,9.0,23.0,96,0.03,,,0.23,,2013-10-14 19:52:00,
2013-10-14 15:11:00,44.0,43.0,30.02,NE,54,11.0,22.0,95,0.04,,,0.25,,2013-10-14 20:11:00,
2013-10-14 15:22:00,44.0,43.0,30.01,ENE,59,8.0,23.0,95,0.04,,,0.26,,2013-10-14 20:22:00,
2013-10-14 15:43:00,44.0,43.0,30.01,ENE,68,9.0,23.0,95,0.05,,,0.27,,2013-10-14 20:43:00,
2013-10-14 15:52:00,44.0,43.0,30.01,NE,37,9.0,24.0,95,0.06,,,0.29,,2013-10-14 20:52:00,
2013-10-14 16:12:00,44.0,42.0,30.01,ENE,67,9.0,25.0,94,0.06,,,0.31,,2013-10-14 21:12:00,
2013-10-14 16:22:00,43.0,41.0,29.99,North,5,9.0,22.0,94,0.06,,,0.32,,2013-10-14 21:22:00,
2013-10-14 16:44:00,43.0,41.0,29.99,East,80,9.0,27.0,94,0.06,,,0.34,,2013-10-14 21:44:00,
2013-10-14 16:55:00,43.0,41.0,30.01,NE,45,8.0,21.0,94,0.06,,,0.35,,2013-10-14 21:55:00,
2013-10-14 17:13:00,42.0,40.0,30.02,ENE,57,7.0,22.0,94,0.05,,,0.36,,2013-10-14 22:13:00,
2013-10-14 17:24:00,42.0,40.0,30.03,NE,53,6.0,16.0,94,0.05,,,0.37,,2013-10-14 22:24:00,
2013-10-14 17:43:00,42.0,40.0,30.03,NNE,19,10.0,22.0,93,0.04,,,0.38,,2013-10-14 22:43:00,
2013-10-14 17:54:00,41.0,39.0,30.03,NNE,30,10.0,19.0,94,0.04,,,0.39,,2013-10-14 22:54:00,
2013-10-14 18:12:00,41.0,39.0,30.03,NE,46,11.0,20.0,94,0.05,,,0.41,,2013-10-14 23:12:00,
2013-10-14 18:22:00,41.0,39.0,30.04,ENE,70,9.0,19.0,94,0.04,,,0.40,,2013-10-14 23:22:00,
2013-10-14 18:42:00,41.0,39.0,30.05,North,351,8.0,19.0,94,0.04,,,0.41,,2013-10-14 23:42:00,
2013-10-14 18:53:00,40.0,38.0,30.06,NNE,26,9.0,17.0,94,0.04,,,0.42,,2013-10-14 23:53:00,
2013-10-14 19:12:00,40.0,38.0,30.05,NNW,344,8.0,20.0,94,0.03,,,0.43,,2013-10-15 00:12:00,
2013-10-14 19:22:00,39.0,37.0,30.05,North,355,10.0,22.0,94,0.03,,,0.44,,2013-10-15 00:22:00,
2013-10-14 19:42:00,39.0,37.0,30.06,NE,56,7.0,15.0,94,0.03,,,0.45,,2013-10-15 00:42:00,
2013-10-14 19:52:00,39.0,37.0,30.05,NNE,22,10.0,26.0,94,0.04,,,0.46,,2013-10-15 00:52:00,
2013-10-14 20:12:00,39.0,37.0,30.07,NE,50,9.0,20.0,94,0.03,,,0.46,,2013-10-15 01:12:00,
2013-10-14 20:22:00,39.0,37.0,30.06,North,10,9.0,19.0,94,0.04,,,0.46,,2013-10-15 01:22:00,
2013-10-14 20:42:00,39.0,37.0,30.06,NNE,30,8.0,15.0,94,0.03,,,0.46,,2013-10-15 01:42:00,
2013-10-14 20:52:00,39.0,38.0,30.06,NNE,25,11.0,22.0,95,0.03,,,0.47,,2013-10-15 01:52:00,
2013-10-14 21:12:00,39.0,37.0,30.07,NNE,26,9.0,17.0,94,0.02,,,0.47,,2013-10-15 02:12:00,
2013-10-14 21:22:00,39.0,37.0,30.08,North,5,11.0,21.0,94,0.02,,,0.48,,2013-10-15 02:22:00,
2013-10-14 21:42:00,39.0,37.0,30.08,ENE,59,7.0,16.0,94,0.03,,,0.49,,2013-10-15 02:42:00,
2013-10-14 21:52:00,38.0,36.0,30.09,NNE,26,8.0,16.0,94,0.02,,,0.49,,2013-10-15 02:52:00,
2013-10-14 22:12:00,38.0,36.0,30.09,North,360,10.0,19.0,94,0.02,,,0.50,,2013-10-15 03:12:00,
2013-10-14 22:23:00,38.0,36.0,30.10,NE,40,11.0,21.0,94,0.03,,,0.50,,2013-10-15 03:23:00,
2013-10-14 22:44:00,38.0,37.0,30.10,North,360,6.0,15.0,95,0.02,,,0.50,,2013-10-15 03:44:00,
2013-10-14 22:55:00,38.0,37.0,30.10,NE,40,8.0,15.0,95,0.03,,,0.51,,2013-10-15 03:55:00,
2013-10-14 23:14:00,38.0,37.0,30.10,North,9,8.0,17.0,95,0.02,,,0.51,,2013-10-15 04:14:00,
2013-10-14 23:24:00,38.0,37.0,30.10,NNE,26,7.0,15.0,95,0.03,,,0.52,,2013-10-15 04:24:00,
2013-10-14 23:43:00,38.0,37.0,30.10,NE,39,9.0,15.0,95,0.02,,,0.52,,2013-10-15 04:43:00,
2013-10-14 23:54:00,38.0,37.0,30.09,NNW,346,7.0,16.0,95,0.02,,,0.53,,2013-10-15 04:54:00,